Regional Weather Roundup
Issued by NWS Sterling, VA

Home | Current Version | Previous Version | Text Only | Print | Product List | Glossary Off
Versions: 1 2 3 4 5 6 7 8 9 10 11 12 13 14 15 16 17 18 19 20 21 22 23 24 25 26 27 28 29 30 31 32 33 34 35 36 37 38 39 40 41 42 43 44 45 46 47 48 49 50

000
ASUS41 KLWX 281410
RWRLWX

REGIONAL WEATHER ROUNDUP
NATIONAL WEATHER SERVICE BALTIMORE MD/WASHINGTON DC
1000 AM EDT FRI AUG 28 2015

Note: "FAIR" indicates few or no clouds below 12,000 feet
with no significant weather and/or obstructions to visibility.
 TC=TEMPERATURE CELSIUS

 * =Non NWS site. Station does not report precipitation (e.g. rain,
    snow, etc.), thunder, or fog.

DCZ001-MDZ009-015-VAZ040>042-051-053>054-281500-
WASHINGTON METRO

CITY           SKY/WX    TMP DP  RH WIND       PRES   REMARKS
WASHINGTON NAT MOSUNNY   75  58  55 CALM      30.22R
DULLES         MOSUNNY   73  58  59 CALM      30.22R
ANDREWS AFB    SUNNY     75  57  53 N5        30.21R
FT BELVOIR     SUNNY     74  60  60 VRB1      30.22R
QUANTICO       SUNNY     72  61  68 N7        30.22R
COLLEGE PARK*  SUNNY     73  55  53 CALM      30.22R
LEESBURG*      SUNNY     73  61  64 CALM      30.24R
MANASSAS*      MOSUNNY   72  61  68 CALM      30.23R
GAITHERSBURG*  SUNNY     72  57  60 SW3       30.26S

$$

MDZ006>007-011-014-281500-
BALTIMORE METRO

CITY           SKY/WX    TMP DP  RH WIND       PRES   REMARKS
BWI AIRPORT    MOSUNNY   74  56  53 E6        30.21R
MD SCIENCE CTR   N/A     74  56  53 MISG      30.22R
MARTIN STATE   SUNNY     73  63  68 CALM      30.23R
ANNAPOLIS      SUNNY     74  61  63 VRB3      30.21R
FORT MEADE*    SUNNY     73  54  49 CALM      30.24R

$$

MDZ012-015-019>023-281500-
MARYLAND EASTERN SHORE

CITY           SKY/WX    TMP DP  RH WIND       PRES   REMARKS
OCEAN CITY     SUNNY     76  58  53 NE10      30.19R
SALISBURY      SUNNY     75  61  61 N8        30.20R
BAY BRIDGE AP*   N/A     73  55  53 E5        30.22R
CAMBRIDGE*     SUNNY     73  59  60 CALM      30.21R
EASTON*        SUNNY     73  61  64 NE7       30.25R

$$

MDZ017>025-281500-
SOUTHERN MARYLAND

CITY           SKY/WX    TMP DP  RH WIND       PRES   REMARKS
PATUXENT RIVER MOSUNNY   75  58  55 NE7       30.21R
ST INIGOES     SUNNY     76  61  59 N6        30.20R
LEONARDTOWN*   SUNNY     73  59  60 CALM      30.23R

$$

MDZ003>005-281500-
NORTH CENTRAL MARYLAND

CITY           SKY/WX    TMP DP  RH WIND       PRES   REMARKS
FREDERICK*     SUNNY     72  61  68 CALM      30.25R
HAGERSTOWN APT MOSUNNY   70  57  63 CALM      30.23S
WESTMINSTER*   MOSUNNY   70  57  64 NW3       30.23S

$$

MDZ501>502-281500-
WESTERN MARYLAND

CITY           SKY/WX    TMP DP  RH WIND       PRES   REMARKS
OAKLAND*       MOSUNNY   61  54  77 SE3       30.28R
CUMBERLAND*    MOSUNNY   66  55  68 CALM      30.27S

$$

VAZ025>031-281500-
SHENANDOAH VALLEY

CITY           SKY/WX    TMP DP  RH WIND       PRES   REMARKS
WINCHESTER*    MOSUNNY   70  55  60 CALM      30.23S
FRONT ROYAL*   FAIR      68  57  68 CALM      30.23S
LURAY*         FAIR      68  55  64 CALM      30.23F
NEW MARKET*    FAIR      69  56  65 CALM      30.22F
STAUNTON*      SUNNY     71  58  62 CALM      30.26S
WAYNESBORO*    FAIR      70  58  65 CALM      30.25S

$$

WVZ021-048>050-054>055-281500-
EASTERN WEST VIRGINIA PANHANDLE

CITY           SKY/WX    TMP DP  RH WIND       PRES   REMARKS
MARTINSBURG    SUNNY     70  56  61 CALM      30.23S
PETERSBURG*    SUNNY     66  57  72 CALM      30.24S

$$

VAZ036>039-050-281500-
CENTRAL FOOTHILLS

CITY           SKY/WX    TMP DP  RH WIND       PRES   REMARKS
CHARLOTTESVILL MOSUNNY   72  59  63 NE5       30.22S
CULPEPER*      SUNNY     71  60  69 CALM      30.23S
ORANGE*        MOSUNNY   73  61  64 CALM      30.24R
GORDONSVILLE*  PTSUNNY   73  60  63 CALM      30.22R
WARRENTON*     FAIR      74  62  65 CALM      30.22S

$$

VAZ055>057-281500-
NORTH AND CENTRAL PIEDMONT

CITY           SKY/WX    TMP DP  RH WIND       PRES   REMARKS
FREDERICKSBRG* SUNNY     75  60  58 CALM      30.21S
STAFFORD*      SUNNY     74  59  59 CALM      30.26R

$$

NCZ024-NYZ072-PAZ021-071-VAZ022-071-281500-
OTHER REGIONAL OBSERVATIONS

CITY           SKY/WX    TMP DP  RH WIND       PRES   REMARKS
NEW YORK CITY  SUNNY     70  52  52 MISG      30.21S
PHILADELPHIA   MOSUNNY   74  51  44 CALM      30.20R
PITTSBURGH     SUNNY     67  57  70 CALM      30.23R
ROANOKE        SUNNY     72  60  66 CALM      30.26R
RICHMOND       MOSUNNY   76  61  59 E6        30.20S
RALEIGH        MOSUNNY   75  61  61 NE6       30.20R

$$

ANZ530>537-281500-
MARINE OBSERVATIONS

STATION/POSITION TIME  TEMP    WIND        PRES
                       AIR SEA DIR/SP/G
                 (UTC) (F)     (DEG/KT/KT) (MB)
THOMAS PT LIGHT  NOT AVBL
BALT KEY BRIDGE  1300   70      20/  4/  5 1022.7R
COVE POINT       1300   70      70/  7/  9 1023.1R
LEWISETTA        1300   74 77   60/  5/  6 1022.0R
SOLOMONS ISLAND  1300      81                N/A
PINEY POINT      1300           50/  6/  8   N/A

$$




USA.gov is the U.S. government's official web portal to all federal, state and local government web resources and services.